User: anonymous   Login
Location: ?ejkovice
(49.0137°N, 14.3821°E)
Time: 18:49:15
(UTC+00:00)
Language:

Cosmos 1745 Rocket - Orbit

View from above orbital plane
View from above orbital plane
View from above satellite
View from above satellite

Ground track
Ground track

The orbit data is extracted from the following two-line orbital elements,

1 16728U 86037B   24206.96847161  .00000125  00000-0  11055-3 0  9997
2 16728  82.9529 213.0935 0031742 140.6046 281.4661 13.76932776917356
Epoch (UTC): 24 July 2024 23:14:35
Eccentricity: 0.0031742
inclination: 82.9529°
perigee height: 951 km
apogee height: 998 km
right ascension of ascending node: 213.0935°
argument of perigee: 140.6046°
revolutions per day: 13.76932776
mean anomaly at epoch: 281.4661°
orbit number at epoch: 91735

The dashed part of the orbit path shows where the satellite is in the earth's shadow,  

DLR